Location: Kershaw
(34.5481°N, 80.5823°W)
Time: 14:55:20
(UTC+00:00)

Altair - All Passes

Search period start: 03 October 2022 00:00
Search period end: 13 October 2022 00:00
Orbit: 1501 x 1682 km, 47.2° (Epoch: 03 October)

Date Brightness Start Highest point End Pass type
(mag) Time Alt. Az. Time Alt. Az. Time Alt. Az.
03 Oct - 08:22:03 10° SSW 08:30:50 43° SE 08:39:57 10° ENE visible
03 Oct - 10:25:41 10° WSW 10:35:19 68° NNW 10:45:21 10° NE visible
03 Oct - 12:32:31 10° WNW 12:41:42 40° N 12:51:07 10° ENE daylight
03 Oct - 14:38:56 10° NW 14:48:39 49° NNE 14:58:25 10° E daylight
03 Oct - 16:44:03 10° NW 16:54:13 78° SW 17:04:18 10° SE daylight
03 Oct - 18:50:50 10° W 18:57:58 22° SW 19:05:03 10° S daylight
04 Oct - 07:57:11 10° SSW 08:05:43 39° SE 08:14:34 10° ENE visible
04 Oct - 10:00:26 10° WSW 10:10:04 72° NNW 10:20:06 10° NE visible
04 Oct - 12:07:09 10° WNW 12:16:19 41° N 12:25:45 10° ENE daylight
04 Oct - 14:13:40 10° NW 14:23:18 47° NNE 14:33:00 10° E daylight
04 Oct - 16:18:48 10° NW 16:29:00 84° SW 16:39:08 10° SE daylight
04 Oct - 18:25:15 10° WNW 18:32:52 25° SW 18:40:27 10° S daylight
05 Oct - 07:32:20 10° S 07:40:37 36° SE 07:49:11 10° ENE visible
05 Oct - 09:35:12 10° WSW 09:44:49 77° NNW 09:54:51 10° NE visible
05 Oct - 11:41:47 10° WNW 11:50:57 42° N 12:00:24 10° ENE daylight
05 Oct - 13:48:24 10° NW 13:57:57 45° NNE 14:07:36 10° E daylight
05 Oct - 15:53:35 10° NW 16:03:46 89° SW 16:13:56 10° SE daylight
05 Oct - 17:59:43 10° WNW 18:07:46 28° SW 18:15:46 10° S daylight
06 Oct - 07:07:33 10° S 07:15:32 32° SE 07:23:46 10° ENE visible
06 Oct - 09:10:00 10° WSW 09:19:35 82° NW 09:29:36 10° NE visible
06 Oct - 11:16:24 10° W 11:25:35 43° NNW 11:35:04 10° ENE daylight
06 Oct - 13:23:07 10° WNW 13:32:35 44° NNE 13:42:10 10° E daylight
06 Oct - 15:28:21 10° NW 15:38:32 86° NE 15:48:43 10° SE daylight
06 Oct - 17:34:15 10° WNW 17:42:40 31° SW 17:51:01 10° S daylight
07 Oct - 06:42:48 10° S 06:50:27 29° SE 06:58:19 10° ENE visible
07 Oct - 08:44:49 10° SW 08:54:22 87° NW 09:04:21 10° NE visible
07 Oct - 10:51:02 10° W 11:00:13 44° NNW 11:09:43 10° ENE visible
07 Oct - 12:57:50 10° WNW 13:07:13 43° NNE 13:16:44 10° E daylight
07 Oct - 15:03:07 10° NW 15:13:17 81° NE 15:23:28 10° ESE daylight
07 Oct - 17:08:49 10° WNW 17:17:32 34° SW 17:26:14 10° S daylight
08 Oct - 06:18:08 10° S 06:25:23 26° SE 06:32:49 10° ENE visible
08 Oct - 08:19:39 10° SW 08:29:09 88° SE 08:39:06 10° NE visible
08 Oct - 10:25:41 10° W 10:34:52 45° NNW 10:44:24 10° NE visible
08 Oct - 12:32:33 10° WNW 12:41:51 42° N 12:51:19 10° E daylight
08 Oct - 14:37:53 10° NW 14:48:01 77° NNE 14:58:12 10° ESE daylight
08 Oct - 16:43:25 10° WNW 16:52:24 38° SW 17:01:22 10° SSE daylight
09 Oct - 05:53:32 10° S 06:00:19 23° SE 06:07:15 10° ENE visible
09 Oct - 07:54:31 10° SW 08:03:57 83° SE 08:13:50 10° NE visible
09 Oct - 10:00:20 10° W 10:09:31 47° NNW 10:19:05 10° NE visible
09 Oct - 12:07:16 10° WNW 12:16:28 41° N 12:25:53 10° ENE daylight
09 Oct - 14:12:40 10° NW 14:22:45 72° NNE 14:32:55 10° ESE daylight
09 Oct - 16:18:03 10° WNW 16:27:16 41° SW 16:36:29 10° SSE daylight
10 Oct - 05:29:00 10° SSE 05:35:15 20° SE 05:41:37 10° E visible
10 Oct - 07:29:24 10° SW 07:38:47 77° SE 07:48:35 10° ENE visible
10 Oct - 09:34:59 10° W 09:44:12 48° NNW 09:53:47 10° NE visible
10 Oct - 11:41:57 10° WNW 11:51:05 40° N 12:00:27 10° ENE daylight
10 Oct - 13:47:27 10° NW 13:57:28 68° NNE 14:07:37 10° ESE daylight
10 Oct - 15:52:43 10° WNW 16:02:07 45° SW 16:11:32 10° SSE daylight
11 Oct - 05:04:35 10° SSE 05:10:12 18° ESE 05:15:54 10° E visible
11 Oct - 07:04:19 10° SW 07:13:37 71° SE 07:23:20 10° ENE visible
11 Oct - 09:09:39 10° W 09:18:53 50° NNW 09:28:30 10° NE visible
11 Oct - 11:16:38 10° WNW 11:25:42 40° N 11:35:01 10° ENE daylight
11 Oct - 13:22:14 10° NW 13:32:12 64° NNE 13:42:17 10° ESE daylight
11 Oct - 15:27:24 10° WNW 15:36:58 50° SW 15:46:33 10° SSE daylight
12 Oct - 04:40:21 10° SSE 04:45:10 15° ESE 04:50:01 10° E night (unlit)
12 Oct - 06:39:15 10° SW 06:48:28 66° SE 06:58:04 10° ENE visible
12 Oct - 08:44:19 10° W 08:53:34 53° NNW 09:03:13 10° NE visible
12 Oct - 10:51:19 10° WNW 11:00:19 39° N 11:09:36 10° ENE visible
12 Oct - 12:57:02 10° NW 13:06:54 61° NNE 13:16:56 10° ESE daylight
12 Oct - 15:02:06 10° WNW 15:11:48 54° SW 15:21:32 10° SSE daylight
12 Oct - 17:12:27 10° WSW 17:15:07 11° WSW 17:17:47 10° SW daylight
